CLASSIFICA

L'E' COME ANDAR DI NOTTE

GARA DI CORSA SU STRADA KM 9

LEVANE (AR) 24/07/2017

DIVISIONI:
KM 9     CLASSIFICA:   ASSOLUTA    M     F    
CATEGORIE:   TUTTE    |   A   |   B   |   C   |   D   |   E   |   F   |   G   |   H  
FILTRO:
  Atleta      Team        Pulisci       Atleti classificati KM 9: 220  

Cliccare sulle colonne per cambiare ordinamento Pagina:   | 1 | | 2 | | 3 | | 4 | | 5 |
Azioni Pos. M/F Cat. P.Cat. Pett Naz Atleta Squadra Tempo Distacco in tempo Distacco in metri Min/Km
11A0509MIDAR HICHAMPOD. CASTELFRANCHESE00:30:06 00:00:00 0 03:21
22A0733NUCERA GIOVANNI DOMENICOPOL. RINASCITA MONTEVARCHI00:30:27 00:00:21 103 03:23
33A0588GRAZIANI EMANUELEPODISTICA IL CAMPINO00:30:42 00:00:36 175 03:25
44A1567OCCHIOLINI FILIPPOFILIRUN TEAM ASD00:30:53 00:00:47 228 03:26
55A2737BREZZI DANIELETRAIL RUNNING PROJECT00:30:55 00:00:49 237 03:26
66A3694TARTAGLINI ALESSANDROU. P.POLICIANO AREZZO ATLETICA00:31:11 00:01:05 312 03:28
77A4574METUSHI MALVINFREE RUNNERS AREZZO00:31:20 00:01:14 354 03:29
88A5659ANNETTI ALESSANDROU. P.POLICIANO AREZZO ATLETICA00:31:43 00:01:37 458 03:31
99B1640FATICHENTI LEONARDOSUBBIANO MARATHON00:31:54 00:01:48 507 03:33
1010B2742BERNINI LORENZOATL. SESTINI FIAMME VERDI AR00:31:57 00:01:51 521 03:33
1111A6655GASMI ABDERRAZZAKTOSCANA ATLETICA FUTURA00:32:04 00:01:58 551 03:34
1212A7735FANI ROBERTORISUBBIANI 200800:32:09 00:02:03 573 03:34
1313A8605BUCCA LORENZOPOL. RINASCITA MONTEVARCHI00:32:20 00:02:14 621 03:36
1414A9548FANI STEFANOATLETICA FUTURA A.S.D.00:32:22 00:02:16 630 03:36
1515A10660BETTARELLI STEFANOU. P.POLICIANO AREZZO ATLETICA00:32:24 00:02:18 638 03:36
1616A11713MENONNA MARCOATLETICA FUTURA FIRENZE00:32:32 00:02:26 673 03:37
1717A12613FEJZAJ RODIONPOL. RINASCITA MONTEVARCHI00:32:49 00:02:43 745 03:39
1818A13580BANELLI LUCAPODISTICA IL CAMPINO00:32:49 00:02:43 745 03:39
1919B3591REFI MIRKOPODISTICA IL CAMPINO00:33:03 00:02:57 803 03:40
2020A14649MORI LORENZOSUBBIANO MARATHON00:33:06 00:03:00 815 03:41
2121C1586FONTANI ETTOREPODISTICA IL CAMPINO00:33:17 00:03:11 860 03:42
2222B4643LAZZERI SIMONESUBBIANO MARATHON00:33:21 00:03:15 877 03:42
2323B5530CELESTINI GUIDOATL. SESTINI FIAMME VERDI AR00:33:21 00:03:15 877 03:42
2424C2526CARLINI STEFANOA.S.D. POL. CHIANCIANO00:33:26 00:03:20 897 03:43
2525B6619MASSETTI STEFANOPOL. RINASCITA MONTEVARCHI00:33:34 00:03:28 929 03:44
2626A15636ANTONINI MARIOSUBBIANO MARATHON00:33:37 00:03:31 941 03:44
2727B7696GRAZZINI PAOLOWELOVEINSULINA TEAM00:33:48 00:03:42 985 03:45
2828A16743LACRIMINI IVANATL. SESTINI FIAMME VERDI AR00:34:26 00:04:20 1.132 03:50
2929A17604BIGI MATTEOPOL. RINASCITA MONTEVARCHI00:34:30 00:04:24 1.147 03:50
3030C3563CASSINI ENZOFILIRUN TEAM ASD00:34:40 00:04:34 1.185 03:51
3131B8648MAZZARELLI GIACOMOSUBBIANO MARATHON00:34:42 00:04:36 1.193 03:51
3232B9510ALLORI FABIOA.S.D. ATLETICA PONTICINO00:34:46 00:04:40 1.208 03:52
3333A18731RAGAZZINI GIACOMOU. P.POLICIANO AREZZO ATLETICA00:34:52 00:04:46 1.230 03:52
3434B10674MANNUCCINI DAVIDEU. P.POLICIANO AREZZO ATLETICA00:34:54 00:04:48 1.237 03:53
3535C4622MORICCA MAUROPOL. RINASCITA MONTEVARCHI00:34:56 00:04:50 1.245 03:53
3636B11540BENVENUTI MASSIMILIANOATLETICA FUTURA A.S.D.00:34:58 00:04:52 1.252 03:53
3737B12690SERBOLI MARCOU. P.POLICIANO AREZZO ATLETICA00:35:04 00:04:58 1.274 03:54
3838A19637BENIGNI SIMONESUBBIANO MARATHON00:35:16 00:05:10 1.318 03:55
3939B13607CAMPANI MASSIMOPOL. RINASCITA MONTEVARCHI00:35:17 00:05:11 1.322 03:55
4040C5609DELLA CORTE SALVATOREPOL. RINASCITA MONTEVARCHI00:35:21 00:05:15 1.336 03:56
4141B14539BENCIVENNI LEONARDOATLETICA FUTURA A.S.D.00:35:22 00:05:16 1.340 03:56
4242B15685PELLEGRINELLI MARCOU. P.POLICIANO AREZZO ATLETICA00:35:35 00:05:29 1.386 03:57
431G0562BELARDINELLI ROBERTAFILIRUN TEAM ASD00:35:37 00:05:31 1.394 03:57
4443B16750BONCOMPAGNI ROBERTOAVIS FOIANO00:35:37 00:05:31 1.394 03:57
4544C6738BURRONI GIOVANNITORRE DEL MANGIA SI00:35:39 00:05:33 1.401 03:58
4645C7692SINATTI STEFANOU. P.POLICIANO AREZZO ATLETICA00:35:46 00:05:40 1.425 03:58
4746A20711SCHICCHI MARCOPOD IL CAMPINO00:35:48 00:05:42 1.432 03:59
4847B17616LAZZERINI MASSIMILIANOPOL. RINASCITA MONTEVARCHI00:35:52 00:05:46 1.447 03:59
492F0582BARNESCHI FRANCESCAPODISTICA IL CAMPINO00:35:53 00:05:47 1.450 03:59
503F0542BINI BENEDETTAATLETICA FUTURA A.S.D.00:36:02 00:05:56 1.481 04:00
5148B18727MAGI MARCOATL. SESTINI FIAMME VERDI AR00:36:05 00:05:59 1.492 04:01
5249A21657VANNI JACOPOTOSCANA ATLETICA FUTURA00:36:07 00:06:01 1.499 04:01
5350B19668DI MICELI CLAUDIOU. P.POLICIANO AREZZO ATLETICA00:36:09 00:06:03 1.506 04:01
5451B20558SILVESTRI ALESSANDROATLETICA FUTURA A.S.D.00:36:09 00:06:03 1.506 04:01
5552B21719RONCOLINI ALESSIOATL. SANGIOVANNESE AR00:36:15 00:06:09 1.526 04:02
5653B22673MAGGI MAURIZIOU. P.POLICIANO AREZZO ATLETICA00:36:17 00:06:11 1.533 04:02
5754A22505FORSINI ANDREAA.S.D. ATLETICA PONTICINO00:36:19 00:06:13 1.540 04:02
5855B23644MARRAGHINI DAVIDSUBBIANO MARATHON00:36:22 00:06:16 1.550 04:02
5956A23645MARRAGHINI MARCOSUBBIANO MARATHON00:36:22 00:06:16 1.550 04:02
6057A24671LISI TOMMASOU. P.POLICIANO AREZZO ATLETICA00:36:25 00:06:19 1.561 04:03
6158A25578SCARAMUCCI GABRIELEGRUPPO POD. I RISORTI BUONCONVENTO A.S.D00:36:28 00:06:22 1.571 04:03
6259A26656TASSINI MIIRKOTOSCANA ATLETICA FUTURA00:36:29 00:06:23 1.574 04:03
6360A27654BALDUZZI PIER PAOLOTOSCANA ATLETICA FUTURA00:36:31 00:06:25 1.581 04:03
6461A28504SEVERI GIORGIOTRAIL RUNNING PROJECT ASD00:36:35 00:06:29 1.594 04:04
6562C8606CALABRO' ANTONIOPOL. RINASCITA MONTEVARCHI00:36:35 00:06:29 1.594 04:04
6663B24617MAOLONI LEONARDOPOL. RINASCITA MONTEVARCHI00:36:39 00:06:33 1.608 04:04
6764D1689SCAGLIA GIANMARCOU. P.POLICIANO AREZZO ATLETICA00:36:41 00:06:35 1.615 04:05
6865B25625PERI ALESSANDROPOL. RINASCITA MONTEVARCHI00:36:44 00:06:38 1.625 04:05
6966B26732MAZZINI JURIRONDA GHIBELLINA00:36:50 00:06:44 1.645 04:06
7067A29663CASI ALESSIOU. P.POLICIANO AREZZO ATLETICA00:36:57 00:06:51 1.668 04:06
7168B27651PELUZZI NICOLASUBBIANO MARATHON00:37:04 00:06:58 1.691 04:07
7269C9635ANDREINI STEFANOSUBBIANO MARATHON00:37:04 00:06:58 1.691 04:07
7370B28603BENEDETTI MARIOPOL. RINASCITA MONTEVARCHI00:37:08 00:07:02 1.704 04:08
7471C10693SOLDINI ALDOU. P.POLICIANO AREZZO ATLETICA00:37:15 00:07:09 1.727 04:08
7572C11525ALFIERI VINCENZOA.S.D. POL. CHIANCIANO00:37:23 00:07:17 1.753 04:09
7673A30513FORZINI LUCAA.S.D. ATLETICA PONTICINO00:37:29 00:07:23 1.772 04:10
7774B29618MARIANI SANDROPOL. RINASCITA MONTEVARCHI00:37:30 00:07:24 1.776 04:10
7875A31638BONINI MIRKOSUBBIANO MARATHON00:37:30 00:07:24 1.776 04:10
7976D2506BARONI MASSIMOPOL. RINASCITA MONTEVARCHI00:37:33 00:07:27 1.785 04:10
8077C12702GUERRI LUCIANOATL. SANGIOVANNESE AR00:37:35 00:07:29 1.792 04:11
8178B30533LAURICELLA GIUSEPPE ALESSANDROATL. SESTINI FIAMME VERDI AR00:37:38 00:07:32 1.801 04:11
8279C13632CIOLI ROBERTOS.S.D.S. MENS SANA IN CORPORE SANO00:37:39 00:07:33 1.804 04:11
8380B31612FALCIONI FRANCESCOPOL. RINASCITA MONTEVARCHI00:37:43 00:07:37 1.817 04:11
8481B32529BURATTINI NICOLAATL. SESTINI FIAMME VERDI AR00:37:45 00:07:39 1.823 04:12
8582C14681MONNANNI ENRICOU. P.POLICIANO AREZZO ATLETICA00:37:52 00:07:46 1.845 04:12
8683B33665CIONCOLINI GIANLUCAU. P.POLICIANO AREZZO ATLETICA00:37:53 00:07:47 1.849 04:13
8784C15714VANDINI ANDREATIFERNO RUNNERS00:38:11 00:08:05 1.905 04:15
8885B34684ORSINI FEDERICI CRISTIANOU. P.POLICIANO AREZZO ATLETICA00:38:13 00:08:07 1.911 04:15
894H1502LACHI ROBERTARUNCARD00:38:16 00:08:10 1.920 04:15
9086B35517PACINI MASSIMILIANOA.S.D. ATLETICA PONTICINO00:38:24 00:08:18 1.945 04:16
915F1741LIBERATORI FRANCESCAATL SESTINI FIAMME VERDI00:38:32 00:08:26 1.969 04:17
9287B36734FIORDI STEFANOMARATHON FIRENZE†00:38:34 00:08:28 1.975 04:17
9388B37683ORETTI ALESSANDROU. P.POLICIANO AREZZO ATLETICA00:38:38 00:08:32 1.987 04:18
9489A32549FILIPPONE ANGELOATLETICA FUTURA A.S.D.00:38:43 00:08:37 2.003 04:18
9590B38675MARCHETTI ANDREAU. P.POLICIANO AREZZO ATLETICA00:38:57 00:08:51 2.044 04:20
9691B39667DELLA LUNGA ALESSANDROU. P.POLICIANO AREZZO ATLETICA00:38:58 00:08:52 2.047 04:20
9792C16557ROSA MICHELEATLETICA FUTURA A.S.D.00:39:01 00:08:55 2.056 04:20
986G1594SANARELLI NICOLETTAPODISTICA IL CAMPINO00:39:03 00:08:57 2.062 04:20
997F2749MENCHETTI DANIELAAVIS FOIANO00:39:05 00:08:59 2.068 04:21
10093D3599LANCELLOTTI GIUSEPPEPOL. POLICIANO00:39:09 00:09:03 2.080 04:21
1018H2579LACRIMINI PATRIZIAMARATHON CLUB CITTA' DI CASTEL00:39:21 00:09:15 2.115 04:22
10294D4512FORZINI EGISTOA.S.D. ATLETICA PONTICINO00:39:33 00:09:27 2.150 04:24
1039G2538ROSSI VALENTINAATLETICA AVIS SANSEPOLCRO00:39:34 00:09:28 2.153 04:24
10410G3503TIBERI LUCIAG.S. IL FIORINO00:39:35 00:09:29 2.156 04:24
10595C17584FELICI FABIOPODISTICA IL CAMPINO00:39:37 00:09:31 2.161 04:24
10696D5601BELARDI STEFANOPOL. RINASCITA MONTEVARCHI00:39:37 00:09:31 2.161 04:24
10797C18515FRONTANI MASSIMOA.S.D. ATLETICA PONTICINO00:39:38 00:09:32 2.164 04:24
10811G4676MARIOTTINI SILVIAU. P.POLICIANO AREZZO ATLETICA00:39:39 00:09:33 2.167 04:24
10998C19725CASINI MIRCOATL. SANGIOVANNESE AR00:39:42 00:09:36 2.176 04:25
11099B40554MUGNAI CLAUDIOATLETICA FUTURA A.S.D.00:39:46 00:09:40 2.187 04:25
11112G5568PAOLI SAMANTAFILIRUN TEAM ASD00:39:47 00:09:41 2.190 04:25
112100A33575PICINOTTI LORENZOG.S.AMATORI POD. AREZZO00:39:52 00:09:46 2.204 04:26
113101B41728PERICOLI SIMONEPOL. RINASCITA MONTEVARCHI00:39:52 00:09:46 2.204 04:26
11413H3501SASSI ANTONELLAG.S. IL FIORINO00:39:55 00:09:49 2.213 04:26
115102B42587GHEZZI MORENOPODISTICA IL CAMPINO00:40:01 00:09:55 2.230 04:27
116103D6536TONELLI LUIGIATL. SESTINI FIAMME VERDI AR00:40:06 00:10:00 2.244 04:27
117104C20590MENCHETTI ADRIANOPODISTICA IL CAMPINO00:40:14 00:10:08 2.266 04:28
118105C21547FABBRUCCI LUCAATLETICA FUTURA A.S.D.00:40:18 00:10:12 2.277 04:29
119106B43592RENZONI FRANCESCOPODISTICA IL CAMPINO00:40:20 00:10:14 2.283 04:29
12014G6511CHECCAGLINI LUCIAA.S.D. ATLETICA PONTICINO00:40:20 00:10:14 2.283 04:29
121107B44516GENNAI MASSIMOA.S.D. ATLETICA PONTICINO00:40:21 00:10:15 2.286 04:29
12215F3700DEL BRAVO COSTANZARUNCARD00:40:27 00:10:21 2.302 04:30
123108B45543CALDINI SAMUELEATLETICA FUTURA A.S.D.00:40:36 00:10:30 2.327 04:31
124109B46680MILANI MANUELU. P.POLICIANO AREZZO ATLETICA00:40:39 00:10:33 2.335 04:31
125110B47624PATERNOSTRO ENNIOPOL. RINASCITA MONTEVARCHI00:41:14 00:11:08 2.430 04:35
126111C22611ERMINI MARCOPOL. RINASCITA MONTEVARCHI00:41:16 00:11:10 2.435 04:35
127112C23705MARZIALI DANILORUNCARD00:41:20 00:11:14 2.445 04:36
128113B48630VALENTE MARCOPOL. RINASCITA MONTEVARCHI00:41:21 00:11:15 2.448 04:36
129114C24723FROSALI ANDREAATL. SANGIOVANNESE AR00:41:23 00:11:17 2.453 04:36
13016F4610ENSOLI MONICAPOL. RINASCITA MONTEVARCHI00:41:27 00:11:21 2.464 04:36
131115A34621MORICCA GIOVANNIPOL. RINASCITA MONTEVARCHI00:41:28 00:11:22 2.467 04:36
132116C25520VERDELLI MORENOA.S.D. ATLETICA PONTICINO00:41:29 00:11:23 2.469 04:37
133117A35507D'ANTONIO FRANCESCOAMATORI PODISTICA AREZZO00:41:30 00:11:24 2.472 04:37
134118E1535SGUERRI SILVANOATL. SESTINI FIAMME VERDI AR00:41:34 00:11:28 2.482 04:37
135119C26744PACINI ALESSANDROATL. SANGIOVANNESE AR00:41:36 00:11:30 2.487 04:37
136120A36508DONATI MARCOATL SANGIOVANNESE00:41:40 00:11:34 2.498 04:38
137121C27724BIGI ADRIANOATL. SANGIOVANNESE AR00:41:41 00:11:35 2.500 04:38
138122C28699VALCI STEFANOATL. SANGIOVANNESE AR00:41:48 00:11:42 2.519 04:39
139123A37589MARZI LUCAPODISTICA IL CAMPINO00:41:56 00:11:50 2.539 04:40
140124C29518TIBERI MORENOA.S.D. ATLETICA PONTICINO00:41:57 00:11:51 2.542 04:40
141125D7522BARABUFFI ALIBERTOA.S.D. ATLETICA SINALUNGA00:42:09 00:12:03 2.572 04:41
142126B49633VOLPI ROBERTOS.S.D.S. MENS SANA IN CORPORE SANO00:42:17 00:12:11 2.593 04:42
143127A38576BIGAZZI PARIDEGRUPPO POD. I RISORTI BUONCONVENTO A.S.D00:42:19 00:12:13 2.598 04:42
144128B50709PALAZZINI MAUROPOL. RINASCITA MONTEVARCHI00:42:21 00:12:15 2.603 04:42
145129C30682NICCOLAI FILIPPOU. P.POLICIANO AREZZO ATLETICA00:42:30 00:12:24 2.625 04:43
146130B51688ROSSI STEFANOU. P.POLICIANO AREZZO ATLETICA00:42:33 00:12:27 2.633 04:44
14717G7569POLVANI NATASCIAFILIRUN TEAM ASD00:42:35 00:12:29 2.638 04:44
14818F5722GRECO SIMONAATL. SANGIOVANNESE AR00:42:38 00:12:32 2.645 04:44
149131D8740CRISTEL CARLOG.P. RICCARDO VALENTI RAPOLANO00:42:47 00:12:41 2.668 04:45
150132B52718BARBAGLI SANDROATL. SANGIOVANNESE AR00:42:49 00:12:43 2.673 04:45
151133B53531FRANCI ALESSANDROATL. SESTINI FIAMME VERDI AR00:42:51 00:12:45 2.677 04:46
152134C31726AGNELLI MARCELLOA.S.D. POL. CHIANCIANO00:42:52 00:12:46 2.680 04:46
153135C32532GAMBERINI STEFANOATL. SESTINI FIAMME VERDI AR00:42:53 00:12:47 2.682 04:46
154136B54541BERNINI MASSIMOATLETICA FUTURA A.S.D.00:42:57 00:12:51 2.692 04:46
155137C33614FORZINI STEFANOPOL. RINASCITA MONTEVARCHI00:42:57 00:12:51 2.692 04:46
156138B55620MONTIGIANI SIMONEPOL. RINASCITA MONTEVARCHI00:42:57 00:12:51 2.692 04:46
15719G8650PANFORI LORENASUBBIANO MARATHON00:43:01 00:12:55 2.702 04:47
158139D9691SINATTI MORENOU. P.POLICIANO AREZZO ATLETICA00:43:14 00:13:08 2.734 04:48
15920H4729MIRRI MARUSCAA.S.D. ATLETICA PONTICINO00:43:19 00:13:13 2.746 04:49
16021H5647MASCOLO CARMELASUBBIANO MARATHON00:43:39 00:13:33 2.793 04:51
161140C34642LAMARCA ALDOSUBBIANO MARATHON00:43:40 00:13:34 2.796 04:51
162141A39712CIGOLINI IACOPOPOL. RINASCITA MONTEVARCHI00:43:41 00:13:35 2.798 04:51
163142B56556PERFERI GIANCARLOATLETICA FUTURA A.S.D.00:43:46 00:13:40 2.810 04:52
164143D10672LOMBARDI MARIOU. P.POLICIANO AREZZO ATLETICA00:43:49 00:13:43 2.817 04:52
16522G9746RONDONI LUISELLAU.P. POLICIANO AREZZO00:43:56 00:13:50 2.833 04:53
166144C35736GONNELLI MARCOPOL. RINASCITA MONTEVARCHI00:43:59 00:13:53 2.840 04:53
167145C36639DE MARTINO MATTEOSUBBIANO MARATHON00:44:01 00:13:55 2.845 04:53
168146C37698MERLI MAUROPOL. RINASCITA MONTEVARCHI00:44:03 00:13:57 2.850 04:54
16923G10544DEL PUGLIA DEBORAATLETICA FUTURA A.S.D.00:44:05 00:13:59 2.854 04:54
170147B57708PARIGI MASSIMOPOL. RINASCITA MONTEVARCHI00:44:05 00:13:59 2.854 04:54
171148A40730MANAG“ CRISTIANAVIS ZERO POSITIVO00:44:06 00:14:00 2.857 04:54
172149B58707FABI ANDREACDP-T&RB GROUP-AREA SISTEMA00:44:07 00:14:01 2.859 04:54
17324F6626RAPACCINI DARIAPOL. RINASCITA MONTEVARCHI00:44:14 00:14:08 2.875 04:55
174150A41555NENCIONI DANIELEATLETICA FUTURA A.S.D.00:44:17 00:14:11 2.882 04:55
175151A42577INNOCENTI EUGENIOGRUPPO POD. I RISORTI BUONCONVENTO A.S.D00:44:22 00:14:16 2.894 04:56
17625G11571ROSADI ALICEFILIRUN TEAM ASD00:44:25 00:14:19 2.900 04:56
177152D11628TACCARI MARIOPOL. RINASCITA MONTEVARCHI00:44:46 00:14:40 2.948 04:58
178153C38745DALL'AVO MARCO GINOU.P. POLICIANO AREZZO00:44:51 00:14:45 2.959 04:59
179154B59658ALLARA RICCARDOU. P.POLICIANO AREZZO ATLETICA00:45:05 00:14:59 2.991 05:01
18026H6608COLLINI GABRIELLAPOL. RINASCITA MONTEVARCHI00:45:11 00:15:05 3.004 05:01
181155C39519VAGNUZZI CARLOA.S.D. ATLETICA PONTICINO00:45:14 00:15:08 3.011 05:02
18227F7561BANELLI LAURAFILIRUN TEAM ASD00:45:16 00:15:10 3.015 05:02
183156B60715BOGLIARI ROBERTORUNCARD00:45:16 00:15:10 3.015 05:02
184157C40678MARTINO ANTONIOU. P.POLICIANO AREZZO ATLETICA00:45:23 00:15:17 3.030 05:03
185158E2703SECCI GIANCARLOFRATELLANZA POP. GRASSINA00:45:29 00:15:23 3.043 05:03
186159C41627RINALDI STEFANOPOL. RINASCITA MONTEVARCHI00:45:33 00:15:27 3.052 05:04
187160D12716SGUERRI BRUNOAMATORI POD. AREZZO00:45:44 00:15:38 3.076 05:05
188161D13664CECCARELLI PAOLOU. P.POLICIANO AREZZO ATLETICA00:45:55 00:15:49 3.100 05:06
18928F8572SBARDELLATI MANUELAFILIRUN TEAM ASD00:46:00 00:15:54 3.110 05:07
190162C42623NOCENTINI GIAMPIEROPOL. RINASCITA MONTEVARCHI00:46:00 00:15:54 3.110 05:07
191163D14748MASSINI MASSIMOA.S.D. ATLETICA PONTICINO00:46:17 00:16:11 3.146 05:09
19229H7523MANCINI GIANNAA.S.D. ATLETICA SINALUNGA00:46:37 00:16:31 3.188 05:11
19330G12721PEDALI SILVIAATL. SANGIOVANNESE AR00:46:39 00:16:33 3.192 05:11
194164B61720BALESTRI PAOLOATL. SANGIOVANNESE AR00:46:39 00:16:33 3.192 05:11
195165D15581BANELLI LUCIANOPODISTICA IL CAMPINO00:47:07 00:17:01 3.250 05:14
196166C43552MIGLIORINI DANILOATLETICA FUTURA A.S.D.00:47:37 00:17:31 3.310 05:17
197167C44551LAPI ANDREAATLETICA FUTURA A.S.D.00:47:37 00:17:31 3.310 05:17
198168D16646MARRAGHINI PIETROSUBBIANO MARATHON00:47:42 00:17:36 3.320 05:18
19931G13706BELLUCCI ELEONORACDP-T&RB GROUP-AREA SISTEMA00:47:45 00:17:39 3.326 05:18
200169B62600ARTINI PAOLOPOL. RINASCITA MONTEVARCHI00:47:56 00:17:50 3.348 05:20
20132H8602BENCINI ALESSANDRAPOL. RINASCITA MONTEVARCHI00:48:00 00:17:54 3.356 05:20
20233H9701NARDINI MARIA GRAZIAFRATELLANZA POP. GRASSINA00:48:02 00:17:56 3.360 05:20
20334F9570REDDITI MONIAFILIRUN TEAM ASD00:48:43 00:18:37 3.439 05:25
20435G14565GALLORINI ROBERTAFILIRUN TEAM ASD00:48:51 00:18:45 3.454 05:26
20536G15634ACCIAI MARUSCASUBBIANO MARATHON00:48:51 00:18:45 3.454 05:26
206170C45697BALDINI GIANCARLOATL PONTICINO00:49:24 00:19:18 3.516 05:29
20737G16739MUZZI FEDERICATORRE DEL MANGIA SI00:49:35 00:19:29 3.536 05:31
20838H10704BOLDI CARLARUNCARD00:50:25 00:20:19 3.626 05:36
20939G17546DEL PUGLIA LUCIAATLETICA FUTURA A.S.D.00:51:45 00:21:39 3.765 05:45
21040G18553MORI LINDAATLETICA FUTURA A.S.D.00:52:12 00:22:06 3.810 05:48
21141G19747RUSSO ANGELAA.S.D. ATLETICA PONTICINO00:52:15 00:22:09 3.815 05:48
212171E3717FOSI GIORGIOLIB SIENA00:53:06 00:23:00 3.898 05:54
21342F10545DEL PUGLIA FRANCESCAATLETICA FUTURA A.S.D.00:54:46 00:24:40 4.053 06:05
214172E4597BLASI ENZOPOL. POLICIANO00:56:08 00:26:02 4.173 06:14
215173E5528BIGNARDI IVOATL. SANGIOVANNESE 196700:57:13 00:27:07 4.265 06:21
21643H11710PARK MI KYUNGRUNCARD00:57:16 00:27:10 4.269 06:22
217174C46662CALDERINI MAUROU. P.POLICIANO AREZZO ATLETICA00:58:01 00:27:55 4.330 06:27
21844G20583FABIANELLI JASMINEPODISTICA IL CAMPINO00:58:48 00:28:42 4.392 06:32
21945H12677MARRAGHINI PATRIZIAU. P.POLICIANO AREZZO ATLETICA01:00:00 00:29:54 4.485 06:40
220175E6670GIBIN AMILCAREU. P.POLICIANO AREZZO ATLETICA01:05:10 00:35:04 4.842 07:14
Righe per pagina::     TUTTE    |   30   |   50   |   100   Pagina:   | 1 | | 2 | | 3 | | 4 | | 5 |